Regional Weather Roundup
Issued by NWS Sterling, VA

Home | Current Version | Previous Version | Graphics & Text | Print | Product List | Glossary On
Versions: 1 2 3 4 5 6 7 8 9 10 11 12 13 14 15 16 17 18 19 20 21 22 23 24 25 26 27 28 29 30 31 32 33 34 35 36 37 38 39 40 41 42 43 44 45 46 47 48 49 50
000
ASUS41 KLWX 261311
RWRLWX

REGIONAL WEATHER ROUNDUP
NATIONAL WEATHER SERVICE BALTIMORE MD/WASHINGTON DC
900 AM EDT WED APR 26 2017

Note: "FAIR" indicates few or no clouds below 12,000 feet
with no significant weather and/or obstructions to visibility.
 TC=TEMPERATURE CELSIUS

 * =Non NWS site. Station does not report precipitation (e.g. rain,
    snow, etc.), thunder, or fog.

DCZ001-MDZ009-015-VAZ040>042-051-053>054-261400-
WASHINGTON METRO

CITY           SKY/WX    TMP DP  RH WIND       PRES   REMARKS
WASHINGTON NAT CLOUDY    60  57  89 NW9       29.77R
DULLES         CLOUDY    58  55  90 NW9       29.78R FOG
ANDREWS AFB    CLOUDY    58  56  94 NW8       29.76R
FT BELVOIR     CLOUDY    60  55  84 NW8       29.77R
QUANTICO       CLOUDY    61  58  90 N10       29.78R
COLLEGE PARK*  CLOUDY    58  54  88 NW3       29.76R
LEESBURG*      CLOUDY    59  59 100 N7        29.79R
MANASSAS*        N/A     60  56  86 NW8       29.79R

$$

MDZ006>007-011-014-261400-
BALTIMORE METRO

CITY           SKY/WX    TMP DP  RH WIND       PRES   REMARKS
BWI AIRPORT    DRIZZLE   58  57  97 NW6       29.76R FOG
MD SCIENCE CTR   N/A     60  54  80 MISG      29.76R
MARTIN STATE   CLOUDY    57  57 100 NW6       29.76R FOG
ANNAPOLIS      CLOUDY    59  57  93 NW7       29.75R FOG
FORT MEADE*    CLOUDY    55  54  94 NW3       29.79R

$$

MDZ012-015-019>023-261400-
MARYLAND EASTERN SHORE

CITY           SKY/WX    TMP DP  RH WIND       PRES   REMARKS
OCEAN CITY     FOG       58  57  97 N6        29.71R VSB 1
SALISBURY      CLOUDY    59  59 100 NW7       29.71R FOG
BAY BRIDGE AP* CLOUDY    57  57 100 N7        29.75R FOG
CAMBRIDGE*     CLOUDY    57  57 100 NW7       29.74R FOG
EASTON*        CLOUDY    59  57  94 N5        29.77R FOG

$$

MDZ017>025-261400-
SOUTHERN MARYLAND

CITY           SKY/WX    TMP DP  RH WIND       PRES   REMARKS
PATUXENT RIVER CLOUDY    59  59 100 NW10      29.75R
ST INIGOES     CLOUDY    60  57  89 NW6       29.74R
LEONARDTOWN*   CLOUDY    57  55  94 NW6       29.77R

$$

MDZ003>005-261400-
NORTH CENTRAL MARYLAND

CITY           SKY/WX    TMP DP  RH WIND       PRES   REMARKS
FREDERICK*     CLOUDY   N/A N/A N/A CALM      29.80R
HAGERSTOWN APT CLOUDY    58  56  93 NW6       29.78R
WESTMINSTER*   CLOUDY    55  55 100 N3        29.77

$$

MDZ501>502-261400-
WESTERN MARYLAND

CITY           SKY/WX    TMP DP  RH WIND       PRES   REMARKS
OAKLAND*       SUNNY     52  52 100 W6        29.83R
CUMBERLAND*    CLOUDY    57  57 100 CALM      29.85R

$$

VAZ025>031-261400-
SHENANDOAH VALLEY

CITY           SKY/WX    TMP DP  RH WIND       PRES   REMARKS
WINCHESTER*    CLOUDY    55  54  94 NW7       29.79S
FRONT ROYAL*   CLOUDY    55  55 100 CALM      29.80R
LURAY*         PTSUNNY   55  55 100 CALM      29.81R
NEW MARKET*    MOSUNNY   55  53  92 CALM      29.80S
STAUNTON*      MOSUNNY   54  53  94 CALM      29.83R
WAYNESBORO*    PTSUNNY   55  54  97 N8        29.81R

$$

WVZ021-048>050-054>055-261400-
EASTERN WEST VIRGINIA PANHANDLE

CITY           SKY/WX    TMP DP  RH WIND       PRES   REMARKS
MARTINSBURG    CLOUDY    58  55  90 NW9       29.78S
PETERSBURG*    CLOUDY    57  54  89 CALM      29.82R

$$

VAZ036>039-050-261400-
CENTRAL FOOTHILLS

CITY           SKY/WX    TMP DP  RH WIND       PRES   REMARKS
CHARLOTTESVILL SUNNY     62  55  77 CALM      29.78R
CULPEPER*      CLOUDY    61  57  87 N5        29.79R
ORANGE*        SUNNY     61  55  82 CALM      29.78S
GORDONSVILLE*  SUNNY     60  56  87 CALM      29.79R
WARRENTON*     CLOUDY    62  55  77 NW3       29.78R

$$

VAZ055>057-261400-
NORTH AND CENTRAL PIEDMONT

CITY           SKY/WX    TMP DP  RH WIND       PRES   REMARKS
FREDERICKSBRG* CLOUDY    60  60  98 NW3       29.78R
STAFFORD*      CLOUDY    59  58  96 NW8       29.82R

$$

NCZ024-NYZ072-PAZ021-071-VAZ022-071-261400-
OTHER REGIONAL OBSERVATIONS

CITY           SKY/WX    TMP DP  RH WIND       PRES   REMARKS
NEW YORK CITY  CLOUDY    54  53  97 VRB6      29.78S
PHILADELPHIA   DRIZZLE   57  56  96 NE8       29.75R FOG
PITTSBURGH     MOSUNNY   57  54  89 S6        29.80R
ROANOKE        MOSUNNY   61  57  87 W9        29.84R
RICHMOND       DRIZZLE   59  59 100 NW7       29.79R FOG
RALEIGH        PTSUNNY   63  56  78 W3        29.82R

$$

ANZ530>537-261400-
MARINE OBSERVATIONS

STATION/POSITION TIME  TEMP    WIND        PRES
                       AIR SEA DIR/SP/G
                 (UTC) (F)     (DEG/KT/KT) (MB)
THOMAS PT LIGHT  1200   57 57  350/  9/ 10   N/A
BALT KEY BRIDGE  1242   58     350/  6/  7 1007.3R
COVE POINT       1242   57     330/ 12/ 14 1007.8R
LEWISETTA        1242   59 61  330/  8/ 10 1007.2R
SOLOMONS ISLAND  1242   58 60  320/  8/ 11   N/A
PINEY POINT      1248          340/ 12/ 13   N/A

$$




USA.gov is the U.S. government's official web portal to all federal, state and local government web resources and services.